Terug naar catalogus

THOR ABLESTAR DEB

ActiefLEO
NORAD 465·DEBRIS·🇺🇸 United States

Gelanceerd Jun 29, 1961 vanaf Cape Canaveral Space Force Station

Loading…

Volgende Passages (komende 24 uur)

TLE

VersSource: Space-Track

Epoch: Sep 13, 2026, 17:21 UTC

1 00465U 61015FB  26256.72323337  .00000838  00000-0  28422-3 0  9999
2 00465  66.3197  16.1170 0040338 250.8060 108.8673 14.41290984358869

Volg THOR ABLESTAR DEB in realtime met AllMySat

Download on the App Store